Time,TemperatureF,DewpointF,PressureIn,WindDirection,WindDirectionDegrees,WindSpeedMPH,WindSpeedGustMPH,Humidity,HourlyPrecipIn,Conditions,Clouds,dailyrainin,SoftwareType,DateUTC
2013-05-15 00:00:00,41.0,33.7,30.06,West,281,2.0,4.0,75,0.00,,---,0.00,VWS V13.00,2013-05-15 07:00:00,
2013-05-15 00:01:00,41.0,33.7,30.06,West,281,0.0,2.0,75,0.00,,---,0.00,VWS V13.00,2013-05-15 07:01:00,
2013-05-15 00:06:00,40.9,33.6,30.06,West,281,1.0,2.0,75,0.00,,---,0.00,VWS V13.00,2013-05-15 07:06:00,
2013-05-15 00:11:00,40.8,33.8,30.06,West,281,2.0,2.0,76,0.00,,---,0.00,VWS V13.00,2013-05-15 07:11:00,
2013-05-15 00:16:00,40.6,34.0,30.06,West,281,1.0,3.0,77,0.00,,---,0.00,VWS V13.00,2013-05-15 07:16:00,
2013-05-15 00:21:00,40.5,34.2,30.06,West,281,0.0,3.0,78,0.00,,---,0.00,VWS V13.00,2013-05-15 07:21:00,
2013-05-15 00:26:00,40.4,34.1,30.07,West,281,1.0,3.0,78,0.00,,---,0.00,VWS V13.00,2013-05-15 07:26:00,
2013-05-15 00:30:00,40.4,34.4,30.06,West,281,2.0,3.0,79,0.00,,---,0.00,VWS V13.00,2013-05-15 07:30:00,
2013-05-15 00:31:00,40.3,34.3,30.06,West,281,0.0,2.0,79,0.00,,---,0.00,VWS V13.00,2013-05-15 07:31:00,
2013-05-15 00:36:00,40.1,34.1,30.07,West,281,0.0,2.0,79,0.00,,---,0.00,VWS V13.00,2013-05-15 07:36:00,
2013-05-15 00:41:00,40.0,33.7,30.07,West,281,0.0,2.0,78,0.00,,---,0.00,VWS V13.00,2013-05-15 07:41:00,
2013-05-15 00:46:00,39.8,33.8,30.06,West,281,0.0,2.0,79,0.00,,---,0.00,VWS V13.00,2013-05-15 07:46:00,
2013-05-15 00:51:00,39.7,33.7,30.06,West,281,0.0,2.0,79,0.00,,---,0.00,VWS V13.00,2013-05-15 07:51:00,
2013-05-15 00:56:00,39.5,33.5,30.06,West,281,0.0,2.0,79,0.00,,---,0.00,VWS V13.00,2013-05-15 07:56:00,
2013-05-15 01:00:00,39.4,33.4,30.06,West,281,0.0,2.0,79,0.00,,---,0.00,VWS V13.00,2013-05-15 08:00:00,
2013-05-15 01:01:00,39.4,33.4,30.07,West,281,0.0,0.0,79,0.00,,---,0.00,VWS V13.00,2013-05-15 08:01:00,
2013-05-15 01:06:00,39.3,33.3,30.06,West,281,1.0,2.0,79,0.00,,---,0.00,VWS V13.00,2013-05-15 08:06:00,
2013-05-15 01:11:00,39.1,33.2,30.06,West,281,0.0,2.0,79,0.00,,---,0.00,VWS V13.00,2013-05-15 08:11:00,
2013-05-15 01:16:00,38.9,33.3,30.07,West,281,0.0,2.0,80,0.00,,---,0.00,VWS V13.00,2013-05-15 08:16:00,
2013-05-15 01:21:00,38.8,33.2,30.06,West,281,0.0,2.0,80,0.00,,---,0.00,VWS V13.00,2013-05-15 08:21:00,
2013-05-15 01:26:00,38.7,33.1,30.06,West,281,0.0,2.0,80,0.00,,---,0.00,VWS V13.00,2013-05-15 08:26:00,
2013-05-15 01:30:00,38.6,33.0,30.06,West,281,1.0,2.0,80,0.00,,---,0.00,VWS V13.00,2013-05-15 08:30:00,
2013-05-15 01:31:00,38.5,32.9,30.06,West,281,1.0,2.0,80,0.00,,---,0.00,VWS V13.00,2013-05-15 08:31:00,
2013-05-15 01:36:00,38.3,33.0,30.07,West,281,1.0,2.0,81,0.00,,---,0.00,VWS V13.00,2013-05-15 08:36:00,
2013-05-15 01:41:00,38.1,32.8,30.06,West,281,0.0,2.0,81,0.00,,---,0.00,VWS V13.00,2013-05-15 08:41:00,
2013-05-15 01:46:00,38.0,32.7,30.07,West,281,1.0,2.0,81,0.00,,---,0.00,VWS V13.00,2013-05-15 08:46:00,
2013-05-15 01:51:00,37.9,32.6,30.07,West,281,1.0,2.0,81,0.00,,---,0.00,VWS V13.00,2013-05-15 08:51:00,
2013-05-15 01:56:00,37.7,32.4,30.07,West,281,0.0,2.0,81,0.00,,---,0.00,VWS V13.00,2013-05-15 08:56:00,
2013-05-15 02:00:00,37.7,32.4,30.07,West,281,1.0,2.0,81,0.00,,---,0.00,VWS V13.00,2013-05-15 09:00:00,
2013-05-15 02:01:00,37.6,32.3,30.06,West,281,1.0,1.0,81,0.00,,---,0.00,VWS V13.00,2013-05-15 09:01:00,
2013-05-15 02:06:00,37.4,32.4,30.07,West,281,0.0,2.0,82,0.00,,---,0.00,VWS V13.00,2013-05-15 09:06:00,
2013-05-15 02:11:00,37.3,32.0,30.07,West,281,0.0,2.0,81,0.00,,---,0.00,VWS V13.00,2013-05-15 09:11:00,
2013-05-15 02:16:00,37.2,32.2,30.07,West,281,1.0,2.0,82,0.00,,---,0.00,VWS V13.00,2013-05-15 09:16:00,
2013-05-15 02:21:00,37.0,32.0,30.07,West,281,0.0,2.0,82,0.00,,---,0.00,VWS V13.00,2013-05-15 09:21:00,
2013-05-15 02:27:00,36.9,31.9,30.07,West,281,1.0,2.0,82,0.00,,---,0.00,VWS V13.00,2013-05-15 09:27:00,
2013-05-15 02:30:00,36.9,31.9,30.07,West,281,2.0,2.0,82,0.00,,---,0.00,VWS V13.00,2013-05-15 09:30:00,
2013-05-15 02:32:00,36.8,32.1,30.06,West,281,1.0,2.0,83,0.00,,---,0.00,VWS V13.00,2013-05-15 09:32:00,
2013-05-15 02:37:00,36.6,31.9,30.06,West,281,1.0,2.0,83,0.00,,---,0.00,VWS V13.00,2013-05-15 09:37:00,
2013-05-15 02:42:00,36.5,31.8,30.06,West,281,1.0,2.0,83,0.00,,---,0.00,VWS V13.00,2013-05-15 09:42:00,
2013-05-15 02:47:00,36.4,32.0,30.06,West,281,1.0,2.0,84,0.00,,---,0.00,VWS V13.00,2013-05-15 09:47:00,
2013-05-15 02:52:00,36.3,31.6,30.06,West,281,0.0,2.0,83,0.00,,---,0.00,VWS V13.00,2013-05-15 09:52:00,
2013-05-15 02:57:00,36.1,31.7,30.06,West,281,2.0,2.0,84,0.00,,---,0.00,VWS V13.00,2013-05-15 09:57:00,
2013-05-15 03:00:00,36.1,31.7,30.06,West,281,1.0,2.0,84,0.00,,---,0.00,VWS V13.00,2013-05-15 10:00:00,
2013-05-15 03:02:00,36.0,31.6,30.06,West,281,1.0,3.0,84,0.00,,---,0.00,VWS V13.00,2013-05-15 10:02:00,
2013-05-15 03:07:00,35.8,31.5,30.07,West,281,2.0,3.0,84,0.00,,---,0.00,VWS V13.00,2013-05-15 10:07:00,
2013-05-15 03:12:00,35.7,31.4,30.06,West,281,2.0,3.0,84,0.00,,---,0.00,VWS V13.00,2013-05-15 10:12:00,
2013-05-15 03:17:00,35.6,31.5,30.06,West,281,0.0,3.0,85,0.00,,---,0.00,VWS V13.00,2013-05-15 10:17:00,
2013-05-15 03:22:00,35.5,31.5,30.07,West,281,0.0,3.0,85,0.00,,---,0.00,VWS V13.00,2013-05-15 10:22:00,
2013-05-15 03:27:00,35.4,31.4,30.07,West,281,0.0,2.0,85,0.00,,---,0.00,VWS V13.00,2013-05-15 10:27:00,
2013-05-15 03:32:00,35.3,31.2,30.07,West,281,0.0,1.0,85,0.00,,---,0.00,VWS V13.00,2013-05-15 10:32:00,
2013-05-15 03:37:00,35.3,31.2,30.06,West,281,0.0,2.0,85,0.00,,---,0.00,VWS V13.00,2013-05-15 10:37:00,
2013-05-15 03:42:00,35.2,31.4,30.06,West,281,1.0,2.0,86,0.00,,---,0.00,VWS V13.00,2013-05-15 10:42:00,
2013-05-15 03:47:00,35.2,31.4,30.06,West,281,0.0,2.0,86,0.00,,---,0.00,VWS V13.00,2013-05-15 10:47:00,
2013-05-15 03:52:00,35.1,31.3,30.06,West,281,0.0,2.0,86,0.00,,---,0.00,VWS V13.00,2013-05-15 10:52:00,
2013-05-15 03:57:00,35.1,31.3,30.06,West,281,0.0,2.0,86,0.00,,---,0.00,VWS V13.00,2013-05-15 10:57:00,
2013-05-15 04:03:00,35.1,31.3,30.07,West,281,0.0,0.0,86,0.00,,---,0.00,VWS V13.00,2013-05-15 11:03:00,
2013-05-15 04:08:00,35.0,31.2,30.07,West,281,0.0,0.0,86,0.00,,---,0.00,VWS V13.00,2013-05-15 11:08:00,
2013-05-15 04:13:00,34.9,31.1,30.06,West,281,0.0,0.0,86,0.00,,---,0.00,VWS V13.00,2013-05-15 11:13:00,
2013-05-15 04:18:00,34.9,31.1,30.06,West,281,0.0,1.0,86,0.00,,---,0.00,VWS V13.00,2013-05-15 11:18:00,
2013-05-15 04:24:00,34.8,31.0,30.07,West,281,0.0,1.0,86,0.00,,---,0.00,VWS V13.00,2013-05-15 11:24:00,
2013-05-15 04:29:00,34.8,31.0,30.07,West,281,0.0,0.0,86,0.00,,---,0.00,VWS V13.00,2013-05-15 11:29:00,
2013-05-15 04:34:00,34.7,31.2,30.07,West,281,0.0,0.0,87,0.00,,---,0.00,VWS V13.00,2013-05-15 11:34:00,
2013-05-15 04:39:00,34.7,31.2,30.06,West,281,0.0,1.0,87,0.00,,---,0.00,VWS V13.00,2013-05-15 11:39:00,
2013-05-15 04:44:00,34.7,31.2,30.07,West,281,0.0,1.0,87,0.00,,---,0.00,VWS V13.00,2013-05-15 11:44:00,
2013-05-15 04:50:00,34.7,31.2,30.07,West,281,0.0,1.0,87,0.00,,---,0.00,VWS V13.00,2013-05-15 11:50:00,
2013-05-15 04:55:00,34.6,31.1,30.06,West,281,0.0,1.0,87,0.00,,---,0.00,VWS V13.00,2013-05-15 11:55:00,
2013-05-15 05:00:00,34.6,31.1,30.06,West,281,0.0,0.0,87,0.00,,---,0.00,VWS V13.00,2013-05-15 12:00:00,
2013-05-15 05:05:00,34.6,31.1,30.06,West,281,0.0,1.0,87,0.00,,---,0.00,VWS V13.00,2013-05-15 12:05:00,
2013-05-15 05:10:00,34.6,31.1,30.06,West,281,0.0,1.0,87,0.00,,---,0.00,VWS V13.00,2013-05-15 12:10:00,
2013-05-15 05:15:00,34.5,31.0,30.06,West,281,0.0,2.0,87,0.00,,---,0.00,VWS V13.00,2013-05-15 12:15:00,
2013-05-15 05:21:00,34.5,31.3,30.06,West,281,0.0,2.0,88,0.00,,---,0.00,VWS V13.00,2013-05-15 12:21:00,
2013-05-15 05:26:00,34.5,31.3,30.06,West,281,0.0,2.0,88,0.00,,---,0.00,VWS V13.00,2013-05-15 12:26:00,
2013-05-15 05:31:00,34.5,31.3,30.06,West,281,0.0,0.0,88,0.00,,---,0.00,VWS V13.00,2013-05-15 12:31:00,
2013-05-15 05:37:00,34.5,31.3,30.06,West,281,0.0,0.0,88,0.00,,---,0.00,VWS V13.00,2013-05-15 12:37:00,
2013-05-15 05:42:00,34.4,31.2,30.06,West,281,0.0,0.0,88,0.00,,---,0.00,VWS V13.00,2013-05-15 12:42:00,
2013-05-15 05:47:00,34.5,31.3,30.06,West,281,0.0,1.0,88,0.00,,---,0.00,VWS V13.00,2013-05-15 12:47:00,
2013-05-15 05:52:00,34.6,31.4,30.06,West,281,0.0,1.0,88,0.00,,---,0.00,VWS V13.00,2013-05-15 12:52:00,
2013-05-15 05:58:00,34.6,31.4,30.06,West,281,0.0,1.0,88,0.00,,---,0.00,VWS V13.00,2013-05-15 12:58:00,
2013-05-15 06:03:00,34.8,31.9,30.07,West,281,0.0,0.0,89,0.00,,---,0.00,VWS V13.00,2013-05-15 13:03:00,
2013-05-15 06:08:00,35.0,32.1,30.07,West,281,0.0,0.0,89,0.00,,---,0.00,VWS V13.00,2013-05-15 13:08:00,
2013-05-15 06:13:00,35.0,32.1,30.07,West,281,0.0,0.0,89,0.00,,---,0.00,VWS V13.00,2013-05-15 13:13:00,
2013-05-15 06:18:00,35.4,32.8,30.07,West,281,0.0,0.0,90,0.00,,---,0.00,VWS V13.00,2013-05-15 13:18:00,
2013-05-15 06:23:00,35.9,33.3,30.07,West,281,0.0,0.0,90,0.00,,---,0.00,VWS V13.00,2013-05-15 13:23:00,
2013-05-15 06:29:00,36.2,33.6,30.07,West,281,0.0,0.0,90,0.00,,---,0.00,VWS V13.00,2013-05-15 13:29:00,
2013-05-15 06:34:00,36.4,34.0,30.06,West,281,0.0,0.0,91,0.00,,---,0.00,VWS V13.00,2013-05-15 13:34:00,
2013-05-15 06:39:00,36.5,34.1,30.07,West,281,0.0,0.0,91,0.00,,---,0.00,VWS V13.00,2013-05-15 13:39:00,
2013-05-15 06:45:00,36.9,34.5,30.07,West,281,0.0,0.0,91,0.00,,---,0.00,VWS V13.00,2013-05-15 13:45:00,
2013-05-15 06:50:00,37.0,34.6,30.07,West,281,0.0,0.0,91,0.00,,---,0.00,VWS V13.00,2013-05-15 13:50:00,
2013-05-15 06:55:00,37.2,34.8,30.07,West,281,0.0,0.0,91,0.00,,---,0.00,VWS V13.00,2013-05-15 13:55:00,
2013-05-15 07:00:00,37.4,35.0,30.07,West,281,0.0,0.0,91,0.00,,---,0.00,VWS V13.00,2013-05-15 14:00:00,
2013-05-15 07:05:00,37.5,35.1,30.07,West,281,0.0,0.0,91,0.00,,---,0.00,VWS V13.00,2013-05-15 14:05:00,
2013-05-15 07:10:00,37.6,35.2,30.07,West,281,0.0,0.0,91,0.00,,---,0.00,VWS V13.00,2013-05-15 14:10:00,
2013-05-15 07:16:00,37.7,35.3,30.07,West,281,0.0,0.0,91,0.00,,---,0.00,VWS V13.00,2013-05-15 14:16:00,
2013-05-15 07:21:00,37.9,35.5,30.07,West,281,0.0,0.0,91,0.00,,---,0.00,VWS V13.00,2013-05-15 14:21:00,
2013-05-15 07:26:00,38.1,36.0,30.07,West,281,0.0,0.0,92,0.00,,---,0.00,VWS V13.00,2013-05-15 14:26:00,
2013-05-15 07:31:00,38.3,36.2,30.06,West,281,0.0,0.0,92,0.00,,---,0.00,VWS V13.00,2013-05-15 14:31:00,
2013-05-15 07:36:00,38.5,36.4,30.06,West,281,0.0,0.0,92,0.00,,---,0.00,VWS V13.00,2013-05-15 14:36:00,
2013-05-15 07:41:00,38.6,36.5,30.06,West,281,0.0,0.0,92,0.00,,---,0.00,VWS V13.00,2013-05-15 14:41:00,
2013-05-15 07:46:00,38.9,36.8,30.06,West,281,0.0,0.0,92,0.00,,---,0.00,VWS V13.00,2013-05-15 14:46:00,
2013-05-15 07:51:00,39.1,37.0,30.06,West,281,0.0,0.0,92,0.00,,---,0.00,VWS V13.00,2013-05-15 14:51:00,
2013-05-15 07:56:00,39.4,37.3,30.06,West,281,0.0,0.0,92,0.00,,---,0.00,VWS V13.00,2013-05-15 14:56:00,
2013-05-15 08:01:00,39.7,37.6,30.08,West,281,0.0,0.0,92,0.00,,---,0.00,VWS V13.00,2013-05-15 15:01:00,
2013-05-15 08:07:00,40.1,38.0,30.08,West,281,0.0,0.0,92,0.00,,---,0.00,VWS V13.00,2013-05-15 15:07:00,
2013-05-15 08:12:00,40.4,38.5,30.08,West,281,0.0,1.0,93,0.00,,---,0.00,VWS V13.00,2013-05-15 15:12:00,
2013-05-15 08:17:00,40.8,38.9,30.08,West,281,1.0,2.0,93,0.00,,---,0.00,VWS V13.00,2013-05-15 15:17:00,
2013-05-15 08:23:00,41.2,39.1,30.08,West,281,0.0,2.0,92,0.00,,---,0.00,VWS V13.00,2013-05-15 15:23:00,
2013-05-15 08:28:00,41.7,39.5,30.07,West,281,0.0,2.0,92,0.00,,---,0.00,VWS V13.00,2013-05-15 15:28:00,
2013-05-15 08:33:00,42.3,40.2,30.07,West,281,0.0,2.0,92,0.00,,---,0.00,VWS V13.00,2013-05-15 15:33:00,
2013-05-15 08:38:00,43.1,40.9,30.07,West,281,0.0,2.0,92,0.00,,---,0.00,VWS V13.00,2013-05-15 15:38:00,
2013-05-15 08:43:00,43.8,41.6,30.07,West,281,0.0,2.0,92,0.00,,---,0.00,VWS V13.00,2013-05-15 15:43:00,
2013-05-15 08:48:00,44.6,42.1,30.06,West,281,0.0,2.0,91,0.00,,---,0.00,VWS V13.00,2013-05-15 15:48:00,
2013-05-15 08:54:00,45.2,42.2,30.06,West,281,0.0,2.0,89,0.00,,---,0.00,VWS V13.00,2013-05-15 15:54:00,
2013-05-15 08:59:00,45.6,42.0,30.06,West,281,1.0,3.0,87,0.00,,---,0.00,VWS V13.00,2013-05-15 15:59:00,
2013-05-15 09:04:00,45.8,41.2,30.07,West,281,0.0,3.0,84,0.00,,---,0.00,VWS V13.00,2013-05-15 16:04:00,
2013-05-15 09:09:00,46.0,40.8,30.07,NNW,330,0.0,3.0,82,0.00,,---,0.00,VWS V13.00,2013-05-15 16:09:00,
2013-05-15 09:14:00,46.4,40.6,30.07,NW,323,0.0,3.0,80,0.00,,---,0.00,VWS V13.00,2013-05-15 16:14:00,
2013-05-15 09:19:00,46.9,41.1,30.07,NW,323,2.0,3.0,80,0.00,,---,0.00,VWS V13.00,2013-05-15 16:19:00,
2013-05-15 09:24:00,47.4,41.2,30.06,NW,323,2.0,3.0,79,0.00,,---,0.00,VWS V13.00,2013-05-15 16:24:00,
2013-05-15 09:30:00,47.9,42.0,30.06,SW,217,1.0,1.0,80,0.00,,---,0.00,VWS V13.00,2013-05-15 16:30:00,
2013-05-15 09:35:00,48.3,41.1,30.06,WSW,240,0.0,3.0,76,0.00,,---,0.00,VWS V13.00,2013-05-15 16:35:00,
2013-05-15 09:40:00,48.7,41.1,30.05,WSW,240,0.0,3.0,75,0.00,,---,0.00,VWS V13.00,2013-05-15 16:40:00,
2013-05-15 09:45:00,49.1,41.2,30.06,West,268,1.0,3.0,74,0.00,,---,0.00,VWS V13.00,2013-05-15 16:45:00,
2013-05-15 09:50:00,49.5,41.2,30.05,West,267,0.0,3.0,73,0.00,,---,0.00,VWS V13.00,2013-05-15 16:50:00,
2013-05-15 09:55:00,50.0,41.3,30.05,NNW,329,2.0,4.0,72,0.00,,---,0.00,VWS V13.00,2013-05-15 16:55:00,
2013-05-15 10:01:00,50.4,41.4,30.05,WNW,287,3.0,4.0,71,0.00,,---,0.00,VWS V13.00,2013-05-15 17:01:00,
2013-05-15 10:07:00,50.9,41.1,30.05,NW,313,2.0,4.0,69,0.00,,---,0.00,VWS V13.00,2013-05-15 17:07:00,
2013-05-15 10:12:00,51.4,40.8,30.05,NW,313,0.0,4.0,67,0.00,,---,0.00,VWS V13.00,2013-05-15 17:12:00,
2013-05-15 10:17:00,51.7,40.3,30.04,NW,313,1.0,4.0,65,0.00,,---,0.00,VWS V13.00,2013-05-15 17:17:00,
2013-05-15 10:23:00,52.2,41.6,30.04,WSW,251,2.0,4.0,67,0.00,,---,0.00,VWS V13.00,2013-05-15 17:23:00,
2013-05-15 10:28:00,52.8,42.5,30.04,SSW,211,1.0,4.0,68,0.00,,---,0.00,VWS V13.00,2013-05-15 17:28:00,
2013-05-15 10:33:00,53.3,41.8,30.04,South,182,0.0,5.0,65,0.00,,---,0.00,VWS V13.00,2013-05-15 17:33:00,
2013-05-15 10:38:00,54.0,42.9,30.03,ESE,102,2.0,5.0,66,0.00,,---,0.00,VWS V13.00,2013-05-15 17:38:00,
2013-05-15 10:43:00,54.7,42.8,30.03,SE,127,0.0,5.0,64,0.00,,---,0.00,VWS V13.00,2013-05-15 17:43:00,
2013-05-15 10:48:00,55.2,43.7,30.03,South,172,1.0,5.0,65,0.00,,---,0.00,VWS V13.00,2013-05-15 17:48:00,
2013-05-15 10:54:00,55.6,42.0,30.03,SSE,166,1.0,5.0,60,0.00,,---,0.00,VWS V13.00,2013-05-15 17:54:00,
2013-05-15 10:59:00,56.2,45.8,30.02,SSE,166,0.0,5.0,68,0.00,,---,0.00,VWS V13.00,2013-05-15 17:59:00,
2013-05-15 11:04:00,56.7,40.7,30.03,NW,317,0.0,4.0,55,0.00,,---,0.00,VWS V13.00,2013-05-15 18:04:00,
2013-05-15 11:09:00,57.7,42.6,30.03,SE,145,0.0,4.0,57,0.00,,---,0.00,VWS V13.00,2013-05-15 18:09:00,
2013-05-15 11:15:00,58.1,40.6,30.02,North,355,4.0,5.0,52,0.00,,---,0.00,VWS V13.00,2013-05-15 18:15:00,
2013-05-15 11:20:00,58.1,39.6,30.02,North,355,0.0,5.0,50,0.00,,---,0.00,VWS V13.00,2013-05-15 18:20:00,
2013-05-15 11:25:00,58.4,39.3,30.02,North,355,0.0,5.0,49,0.00,,---,0.00,VWS V13.00,2013-05-15 18:25:00,
2013-05-15 11:30:00,58.7,38.0,30.01,North,355,0.0,0.0,46,0.00,,---,0.00,VWS V13.00,2013-05-15 18:30:00,
2013-05-15 11:36:00,59.4,42.3,30.01,ESE,109,0.0,3.0,53,0.00,,---,0.00,VWS V13.00,2013-05-15 18:36:00,
2013-05-15 11:41:00,59.6,39.9,30.01,ESE,109,0.0,3.0,48,0.00,,---,0.00,VWS V13.00,2013-05-15 18:41:00,
2013-05-15 11:47:00,59.9,40.2,30.01,ESE,109,2.0,3.0,48,0.00,,---,0.00,VWS V13.00,2013-05-15 18:47:00,
2013-05-15 11:52:00,60.1,38.1,30.01,SE,137,3.0,5.0,44,0.00,,---,0.00,VWS V13.00,2013-05-15 18:52:00,
2013-05-15 11:57:00,60.4,36.6,30.00,SE,134,1.0,5.0,41,0.00,,---,0.00,VWS V13.00,2013-05-15 18:57:00,
2013-05-15 12:02:00,60.9,38.3,30.00,SE,134,0.0,4.0,43,0.00,,---,0.00,VWS V13.00,2013-05-15 19:02:00,
2013-05-15 12:07:00,61.6,38.9,30.00,SE,134,0.0,4.0,43,0.00,,---,0.00,VWS V13.00,2013-05-15 19:07:00,
2013-05-15 12:13:00,62.0,38.0,30.00,West,273,4.0,4.0,41,0.00,,---,0.00,VWS V13.00,2013-05-15 19:13:00,
2013-05-15 12:18:00,62.8,37.5,29.99,SSE,168,4.0,5.0,39,0.00,,---,0.00,VWS V13.00,2013-05-15 19:18:00,
2013-05-15 12:23:00,62.7,42.2,29.99,SSE,152,0.0,6.0,47,0.00,,---,0.00,VWS V13.00,2013-05-15 19:23:00,
2013-05-15 12:28:00,61.1,40.7,29.99,ESE,107,1.0,6.0,47,0.00,,---,0.00,VWS V13.00,2013-05-15 19:28:00,
2013-05-15 12:33:00,60.4,42.7,29.99,ESE,104,0.0,3.0,52,0.00,,---,0.00,VWS V13.00,2013-05-15 19:33:00,
2013-05-15 12:38:00,60.7,36.9,29.99,ESE,104,0.0,3.0,41,0.00,,---,0.00,VWS V13.00,2013-05-15 19:38:00,
2013-05-15 12:43:00,60.8,38.8,29.98,East,91,0.0,4.0,44,0.00,,---,0.00,VWS V13.00,2013-05-15 19:43:00,
2013-05-15 12:48:00,60.5,39.6,29.98,East,91,1.0,4.0,46,0.00,,---,0.00,VWS V13.00,2013-05-15 19:48:00,
2013-05-15 12:54:00,59.9,40.2,29.99,East,94,3.0,4.0,48,0.00,,---,0.00,VWS V13.00,2013-05-15 19:54:00,
2013-05-15 12:59:00,60.0,36.2,29.99,WSW,250,2.0,3.0,41,0.00,,---,0.00,VWS V13.00,2013-05-15 19:59:00,
2013-05-15 13:04:00,60.7,40.4,29.99,NNE,32,0.0,4.0,47,0.00,,---,0.00,VWS V13.00,2013-05-15 20:04:00,
2013-05-15 13:10:00,61.7,36.5,29.98,West,269,2.0,5.0,39,0.00,,---,0.00,VWS V13.00,2013-05-15 20:10:00,
2013-05-15 13:15:00,62.9,39.5,29.98,NW,325,3.0,9.0,42,0.00,,---,0.00,VWS V13.00,2013-05-15 20:15:00,
2013-05-15 13:21:00,63.6,34.7,29.97,NNE,14,0.0,9.0,34,0.00,,---,0.00,VWS V13.00,2013-05-15 20:21:00,
2013-05-15 13:26:00,64.0,34.3,29.97,WSW,256,2.0,9.0,33,0.00,,---,0.00,VWS V13.00,2013-05-15 20:26:00,
2013-05-15 13:31:00,64.7,35.7,29.97,WNW,287,1.0,4.0,34,0.00,,---,0.00,VWS V13.00,2013-05-15 20:31:00,
2013-05-15 13:36:00,65.1,35.3,29.97,WSW,238,4.0,4.0,33,0.00,,---,0.00,VWS V13.00,2013-05-15 20:36:00,
2013-05-15 13:42:00,65.0,35.2,29.97,SSW,202,3.0,6.0,33,0.00,,---,0.00,VWS V13.00,2013-05-15 20:42:00,
2013-05-15 13:47:00,64.5,37.0,29.96,SSE,164,1.0,6.0,36,0.00,,---,0.00,VWS V13.00,2013-05-15 20:47:00,
2013-05-15 13:52:00,64.9,35.1,29.96,NW,307,1.0,6.0,33,0.00,,---,0.00,VWS V13.00,2013-05-15 20:52:00,
2013-05-15 13:57:00,65.6,36.5,29.96,SW,236,0.0,6.0,34,0.00,,---,0.00,VWS V13.00,2013-05-15 20:57:00,
2013-05-15 14:02:00,66.1,36.9,29.96,SSE,157,4.0,4.0,34,0.00,,---,0.00,VWS V13.00,2013-05-15 21:02:00,
2013-05-15 14:08:00,66.3,37.1,29.96,SW,234,3.0,8.0,34,0.00,,---,0.00,VWS V13.00,2013-05-15 21:08:00,
2013-05-15 14:13:00,66.3,37.1,29.95,WSW,241,4.0,8.0,34,0.00,,---,0.00,VWS V13.00,2013-05-15 21:13:00,
2013-05-15 14:18:00,66.4,36.5,29.95,WSW,242,2.0,8.0,33,0.00,,---,0.00,VWS V13.00,2013-05-15 21:18:00,
2013-05-15 14:23:00,66.2,39.9,29.95,West,278,0.0,8.0,38,0.00,,---,0.00,VWS V13.00,2013-05-15 21:23:00,
2013-05-15 14:28:00,66.5,36.5,29.95,West,277,1.0,8.0,33,0.00,,---,0.00,VWS V13.00,2013-05-15 21:28:00,
2013-05-15 14:33:00,66.9,35.3,29.95,SW,221,2.0,5.0,31,0.00,,---,0.00,VWS V13.00,2013-05-15 21:33:00,
2013-05-15 14:38:00,67.1,34.7,29.95,WSW,238,4.0,5.0,30,0.00,,---,0.00,VWS V13.00,2013-05-15 21:38:00,
2013-05-15 14:43:00,67.2,38.7,29.95,SSW,208,2.0,6.0,35,0.00,,---,0.00,VWS V13.00,2013-05-15 21:43:00,
2013-05-15 14:49:00,67.0,35.4,29.95,SW,220,2.0,7.0,31,0.00,,---,0.00,VWS V13.00,2013-05-15 21:49:00,
2013-05-15 14:54:00,67.0,37.7,29.94,SSW,210,2.0,7.0,34,0.00,,---,0.00,VWS V13.00,2013-05-15 21:54:00,
2013-05-15 14:59:00,67.1,38.6,29.94,SE,141,3.0,3.0,35,0.00,,---,0.00,VWS V13.00,2013-05-15 21:59:00,
2013-05-15 15:04:00,67.2,35.6,29.94,SSE,158,3.0,6.0,31,0.00,,---,0.00,VWS V13.00,2013-05-15 22:04:00,
2013-05-15 15:09:00,67.2,37.9,29.94,SE,141,4.0,6.0,34,0.00,,---,0.00,VWS V13.00,2013-05-15 22:09:00,
2013-05-15 15:14:00,67.2,36.4,29.94,SW,221,4.0,6.0,32,0.00,,---,0.00,VWS V13.00,2013-05-15 22:14:00,
2013-05-15 15:19:00,67.6,36.7,29.94,SW,227,4.0,7.0,32,0.00,,---,0.00,VWS V13.00,2013-05-15 22:19:00,
2013-05-15 15:24:00,68.0,37.8,29.93,SW,233,2.0,7.0,33,0.00,,---,0.00,VWS V13.00,2013-05-15 22:24:00,
2013-05-15 15:30:00,68.2,37.2,29.93,SE,124,3.0,4.0,32,0.00,,---,0.00,VWS V13.00,2013-05-15 22:30:00,
2013-05-15 15:35:00,68.0,37.1,29.93,South,170,4.0,5.0,32,0.00,,---,0.00,VWS V13.00,2013-05-15 22:35:00,
2013-05-15 15:40:00,67.8,38.4,29.93,South,171,3.0,6.0,34,0.00,,---,0.00,VWS V13.00,2013-05-15 22:40:00,
2013-05-15 15:45:00,67.7,35.2,29.93,West,269,0.0,6.0,30,0.00,,---,0.00,VWS V13.00,2013-05-15 22:45:00,
2013-05-15 15:50:00,67.5,38.9,29.93,West,279,0.0,6.0,35,0.00,,---,0.00,VWS V13.00,2013-05-15 22:50:00,
2013-05-15 15:55:00,67.7,36.0,29.93,NW,315,3.0,6.0,31,0.00,,---,0.00,VWS V13.00,2013-05-15 22:55:00,
2013-05-15 16:00:00,67.9,37.8,29.92,West,272,4.0,5.0,33,0.00,,---,0.00,VWS V13.00,2013-05-15 23:00:00,
2013-05-15 16:05:00,68.2,36.4,29.92,WNW,301,3.0,6.0,31,0.00,,---,0.00,VWS V13.00,2013-05-15 23:05:00,
2013-05-15 16:10:00,68.2,36.4,29.92,NNW,348,1.0,6.0,31,0.00,,---,0.00,VWS V13.00,2013-05-15 23:10:00,
2013-05-15 16:15:00,68.3,37.3,29.92,WNW,289,2.0,6.0,32,0.00,,---,0.00,VWS V13.00,2013-05-15 23:15:00,
2013-05-15 16:21:00,68.1,35.5,29.92,West,272,2.0,7.0,30,0.00,,---,0.00,VWS V13.00,2013-05-15 23:21:00,
2013-05-15 16:26:00,67.9,34.5,29.92,NW,317,3.0,7.0,29,0.00,,---,0.00,VWS V13.00,2013-05-15 23:26:00,
2013-05-15 16:31:00,67.3,34.8,29.92,NNW,334,0.0,4.0,30,0.00,,---,0.00,VWS V13.00,2013-05-15 23:31:00,
2013-05-15 16:37:00,67.4,40.9,29.91,NNW,334,0.0,4.0,38,0.00,,---,0.00,VWS V13.00,2013-05-15 23:37:00,
2013-05-15 16:42:00,67.9,37.0,29.91,ESE,102,2.0,5.0,32,0.00,,---,0.00,VWS V13.00,2013-05-15 23:42:00,
2013-05-15 16:47:00,68.2,37.2,29.91,East,87,2.0,6.0,32,0.00,,---,0.00,VWS V13.00,2013-05-15 23:47:00,
2013-05-15 16:52:00,68.0,35.4,29.91,ENE,72,0.0,6.0,30,0.00,,---,0.00,VWS V13.00,2013-05-15 23:52:00,
2013-05-15 16:57:00,67.6,36.7,29.91,ENE,72,0.0,6.0,32,0.00,,---,0.00,VWS V13.00,2013-05-15 23:57:00,
2013-05-15 17:03:00,67.4,37.3,29.91,East,101,0.0,4.0,33,0.00,,---,0.00,VWS V13.00,2013-05-16 00:03:00,
2013-05-15 17:08:00,67.3,38.7,29.90,East,101,0.0,4.0,35,0.00,,---,0.00,VWS V13.00,2013-05-16 00:08:00,
2013-05-15 17:13:00,67.2,36.4,29.90,East,101,0.0,4.0,32,0.00,,---,0.00,VWS V13.00,2013-05-16 00:13:00,
2013-05-15 17:19:00,67.0,36.2,29.90,East,101,0.0,4.0,32,0.00,,---,0.00,VWS V13.00,2013-05-16 00:19:00,
2013-05-15 17:24:00,66.8,38.3,29.90,East,101,0.0,4.0,35,0.00,,---,0.00,VWS V13.00,2013-05-16 00:24:00,
2013-05-15 17:29:00,66.6,38.1,29.90,East,101,0.0,0.0,35,0.00,,---,0.00,VWS V13.00,2013-05-16 00:29:00,
2013-05-15 17:34:00,66.5,40.1,29.89,East,101,0.0,1.0,38,0.00,,---,0.00,VWS V13.00,2013-05-16 00:34:00,
2013-05-15 17:39:00,66.4,35.7,29.90,ENE,64,3.0,4.0,32,0.00,,---,0.00,VWS V13.00,2013-05-16 00:39:00,
2013-05-15 17:44:00,66.3,40.0,29.90,ENE,64,0.0,4.0,38,0.00,,---,0.00,VWS V13.00,2013-05-16 00:44:00,
2013-05-15 17:50:00,66.1,37.7,29.89,ENE,64,0.0,4.0,35,0.00,,---,0.00,VWS V13.00,2013-05-16 00:50:00,
2013-05-15 17:55:00,66.0,42.3,29.89,ENE,64,0.0,4.0,42,0.00,,---,0.00,VWS V13.00,2013-05-16 00:55:00,
2013-05-15 18:00:00,66.0,39.7,29.89,ENE,64,0.0,1.0,38,0.00,,---,0.00,VWS V13.00,2013-05-16 01:00:00,
2013-05-15 18:05:00,66.0,38.3,29.89,ENE,64,0.0,1.0,36,0.00,,---,0.00,VWS V13.00,2013-05-16 01:05:00,
2013-05-15 18:10:00,65.9,37.5,29.89,ENE,64,1.0,2.0,35,0.00,,---,0.00,VWS V13.00,2013-05-16 01:10:00,
2013-05-15 18:15:00,65.8,37.4,29.89,ENE,64,0.0,2.0,35,0.00,,---,0.00,VWS V13.00,2013-05-16 01:15:00,
2013-05-15 18:20:00,65.7,36.6,29.89,ENE,64,0.0,2.0,34,0.00,,---,0.00,VWS V13.00,2013-05-16 01:20:00,
2013-05-15 18:25:00,65.7,38.7,29.89,SW,223,4.0,5.0,37,0.00,,---,0.00,VWS V13.00,2013-05-16 01:25:00,
2013-05-15 18:31:00,65.7,35.8,29.88,SW,226,0.0,4.0,33,0.00,,---,0.00,VWS V13.00,2013-05-16 01:31:00,
2013-05-15 18:36:00,65.7,35.1,29.89,SW,227,3.0,4.0,32,0.00,,---,0.00,VWS V13.00,2013-05-16 01:36:00,
2013-05-15 18:41:00,65.7,35.8,29.88,West,269,0.0,5.0,33,0.00,,---,0.00,VWS V13.00,2013-05-16 01:41:00,
2013-05-15 18:46:00,65.5,36.4,29.88,WSW,238,2.0,5.0,34,0.00,,---,0.00,VWS V13.00,2013-05-16 01:46:00,
2013-05-15 18:51:00,65.3,34.7,29.88,WSW,238,1.0,5.0,32,0.00,,---,0.00,VWS V13.00,2013-05-16 01:51:00,
2013-05-15 18:56:00,65.1,35.3,29.88,WSW,238,3.0,5.0,33,0.00,,---,0.00,VWS V13.00,2013-05-16 01:56:00,
2013-05-15 19:02:00,64.7,35.7,29.88,WSW,238,0.0,2.0,34,0.00,,---,0.00,VWS V13.00,2013-05-16 02:02:00,
2013-05-15 19:07:00,64.5,35.5,29.88,WSW,238,0.0,2.0,34,0.00,,---,0.00,VWS V13.00,2013-05-16 02:07:00,
2013-05-15 19:12:00,64.3,36.8,29.88,WSW,238,0.0,2.0,36,0.00,,---,0.00,VWS V13.00,2013-05-16 02:12:00,
2013-05-15 19:17:00,64.1,36.6,29.88,WSW,238,0.0,2.0,36,0.00,,---,0.00,VWS V13.00,2013-05-16 02:17:00,
2013-05-15 19:23:00,63.9,36.5,29.88,WSW,237,0.0,2.0,36,0.00,,---,0.00,VWS V13.00,2013-05-16 02:23:00,
2013-05-15 19:28:00,63.6,36.2,29.88,WSW,238,0.0,2.0,36,0.00,,---,0.00,VWS V13.00,2013-05-16 02:28:00,
2013-05-15 19:34:00,63.4,36.7,29.88,WSW,238,0.0,0.0,37,0.00,,---,0.00,VWS V13.00,2013-05-16 02:34:00,
2013-05-15 19:39:00,63.3,36.6,29.88,WSW,238,0.0,0.0,37,0.00,,---,0.00,VWS V13.00,2013-05-16 02:39:00,
2013-05-15 19:44:00,63.1,36.4,29.88,WSW,237,0.0,0.0,37,0.00,,---,0.00,VWS V13.00,2013-05-16 02:44:00,
2013-05-15 19:49:00,62.8,36.2,29.88,WSW,238,0.0,0.0,37,0.00,,---,0.00,VWS V13.00,2013-05-16 02:49:00,
2013-05-15 19:54:00,62.7,36.8,29.88,WSW,238,0.0,1.0,38,0.00,,---,0.00,VWS V13.00,2013-05-16 02:54:00,
2013-05-15 19:59:00,62.5,37.2,29.87,WSW,238,0.0,0.0,39,0.00,,---,0.00,VWS V13.00,2013-05-16 02:59:00,
2013-05-15 20:05:00,62.3,40.1,29.87,WSW,237,2.0,3.0,44,0.00,,---,0.00,VWS V13.00,2013-05-16 03:05:00,
2013-05-15 20:10:00,62.1,41.1,29.87,WSW,237,1.0,3.0,46,0.00,,---,0.00,VWS V13.00,2013-05-16 03:10:00,
2013-05-15 20:15:00,61.8,40.3,29.87,SW,235,3.0,3.0,45,0.00,,---,0.00,VWS V13.00,2013-05-16 03:15:00,
2013-05-15 20:21:00,61.4,38.7,29.87,SSE,153,0.0,9.0,43,0.00,,---,0.00,VWS V13.00,2013-05-16 03:21:00,
2013-05-15 20:26:00,61.2,38.0,29.88,South,172,4.0,9.0,42,0.00,,---,0.00,VWS V13.00,2013-05-16 03:26:00,
2013-05-15 20:31:00,61.0,37.8,29.88,South,189,0.0,5.0,42,0.00,,---,0.00,VWS V13.00,2013-05-16 03:31:00,
2013-05-15 20:36:00,60.9,37.1,29.88,SSE,157,0.0,5.0,41,0.00,,---,0.00,VWS V13.00,2013-05-16 03:36:00,
2013-05-15 20:42:00,60.7,36.9,29.88,South,178,0.0,7.0,41,0.00,,---,0.00,VWS V13.00,2013-05-16 03:42:00,
2013-05-15 20:47:00,60.7,36.9,29.88,SSW,202,4.0,7.0,41,0.00,,---,0.00,VWS V13.00,2013-05-16 03:47:00,
2013-05-15 20:52:00,60.6,36.8,29.88,SSW,202,0.0,7.0,41,0.00,,---,0.00,VWS V13.00,2013-05-16 03:52:00,
2013-05-15 20:57:00,60.5,36.7,29.88,SSE,159,3.0,7.0,41,0.00,,---,0.00,VWS V13.00,2013-05-16 03:57:00,
2013-05-15 21:01:00,60.5,36.7,29.88,South,184,2.0,4.0,41,0.00,,---,0.00,VWS V13.00,2013-05-16 04:01:00,
2013-05-15 21:06:00,60.4,36.6,29.88,SSW,192,2.0,6.0,41,0.00,,---,0.00,VWS V13.00,2013-05-16 04:06:00,
2013-05-15 21:11:00,60.4,36.0,29.88,South,177,5.0,6.0,40,0.00,,---,0.00,VWS V13.00,2013-05-16 04:11:00,
2013-05-15 21:16:00,60.4,36.6,29.88,South,172,2.0,6.0,41,0.00,,---,0.00,VWS V13.00,2013-05-16 04:16:00,
2013-05-15 21:21:00,60.3,36.5,29.88,SSE,163,0.0,6.0,41,0.00,,---,0.00,VWS V13.00,2013-05-16 04:21:00,
2013-05-15 21:26:00,60.3,36.5,29.88,South,175,2.0,6.0,41,0.00,,---,0.00,VWS V13.00,2013-05-16 04:26:00,
2013-05-15 21:31:00,60.2,37.0,29.88,South,169,1.0,4.0,42,0.00,,---,0.00,VWS V13.00,2013-05-16 04:31:00,
2013-05-15 21:36:00,60.1,37.0,29.88,SE,146,4.0,5.0,42,0.00,,---,0.00,VWS V13.00,2013-05-16 04:36:00,
2013-05-15 21:41:00,60.0,36.9,29.88,South,182,4.0,9.0,42,0.00,,---,0.00,VWS V13.00,2013-05-16 04:41:00,
2013-05-15 21:46:00,59.9,37.4,29.88,South,169,0.0,9.0,43,0.00,,---,0.00,VWS V13.00,2013-05-16 04:46:00,
2013-05-15 21:51:00,59.7,37.8,29.88,SSE,159,3.0,9.0,44,0.00,,---,0.00,VWS V13.00,2013-05-16 04:51:00,
2013-05-15 21:56:00,59.6,38.2,29.88,South,176,8.0,10.0,45,0.00,,---,0.00,VWS V13.00,2013-05-16 04:56:00,
2013-05-15 22:01:00,59.4,37.5,29.88,SSE,163,1.0,5.0,44,0.00,,---,0.00,VWS V13.00,2013-05-16 05:01:00,
2013-05-15 22:06:00,59.3,37.4,29.88,SSW,198,3.0,6.0,44,0.00,,---,0.00,VWS V13.00,2013-05-16 05:06:00,
2013-05-15 22:11:00,59.3,38.0,29.87,SSW,212,2.0,9.0,45,0.00,,---,0.00,VWS V13.00,2013-05-16 05:11:00,
2013-05-15 22:16:00,59.2,37.9,29.87,SSW,207,5.0,9.0,45,0.00,,---,0.00,VWS V13.00,2013-05-16 05:16:00,
2013-05-15 22:21:00,59.2,37.9,29.87,SSE,148,2.0,9.0,45,0.00,,---,0.00,VWS V13.00,2013-05-16 05:21:00,
2013-05-15 22:26:00,59.0,38.3,29.87,SSW,194,0.0,9.0,46,0.00,,---,0.00,VWS V13.00,2013-05-16 05:26:00,
2013-05-15 22:31:00,59.0,38.3,29.87,SSW,209,0.0,4.0,46,0.00,,---,0.00,VWS V13.00,2013-05-16 05:31:00,
2013-05-15 22:36:00,59.0,39.4,29.88,WSW,244,0.0,4.0,48,0.00,,---,0.00,VWS V13.00,2013-05-16 05:36:00,
2013-05-15 22:41:00,59.0,39.4,29.88,WSW,244,0.0,4.0,48,0.00,,---,0.00,VWS V13.00,2013-05-16 05:41:00,
2013-05-15 22:46:00,58.9,39.3,29.88,WSW,244,0.0,4.0,48,0.00,,---,0.00,VWS V13.00,2013-05-16 05:46:00,
2013-05-15 22:51:00,58.6,39.5,29.88,SW,228,1.0,4.0,49,0.00,,---,0.00,VWS V13.00,2013-05-16 05:51:00,
2013-05-15 22:56:00,58.4,39.8,29.87,SW,232,2.0,4.0,50,0.00,,---,0.00,VWS V13.00,2013-05-16 05:56:00,
2013-05-15 23:01:00,58.3,41.8,29.86,SW,233,2.0,4.0,54,0.00,,---,0.00,VWS V13.00,2013-05-16 06:01:00,
2013-05-15 23:06:00,58.1,41.6,29.86,SW,233,2.0,4.0,54,0.00,,---,0.00,VWS V13.00,2013-05-16 06:06:00,
2013-05-15 23:11:00,57.8,41.8,29.86,SW,234,3.0,4.0,55,0.00,,---,0.00,VWS V13.00,2013-05-16 06:11:00,
2013-05-15 23:16:00,57.6,41.6,29.86,WSW,240,3.0,5.0,55,0.00,,---,0.00,VWS V13.00,2013-05-16 06:16:00,
2013-05-15 23:21:00,57.3,41.3,29.86,West,272,2.0,5.0,55,0.00,,---,0.00,VWS V13.00,2013-05-16 06:21:00,
2013-05-15 23:26:00,57.1,41.1,29.87,WSW,241,3.0,5.0,55,0.00,,---,0.00,VWS V13.00,2013-05-16 06:26:00,
2013-05-15 23:31:00,56.9,41.8,29.87,West,273,2.0,5.0,57,0.00,,---,0.00,VWS V13.00,2013-05-16 06:31:00,
2013-05-15 23:36:00,56.7,42.1,29.87,West,277,5.0,5.0,58,0.00,,---,0.00,VWS V13.00,2013-05-16 06:36:00,
2013-05-15 23:41:00,56.4,42.7,29.87,WNW,293,3.0,5.0,60,0.00,,---,0.00,VWS V13.00,2013-05-16 06:41:00,
2013-05-15 23:46:00,56.2,43.0,29.87,West,271,0.0,5.0,61,0.00,,---,0.00,VWS V13.00,2013-05-16 06:46:00,
2013-05-15 23:51:00,56.1,43.7,29.88,West,271,2.0,5.0,63,0.00,,---,0.00,VWS V13.00,2013-05-16 06:51:00,
2013-05-15 23:56:00,55.9,43.5,29.87,West,276,3.0,5.0,63,0.00,,---,0.00,VWS V13.00,2013-05-16 06:56:00,